Flag Weather past 2 weeks in Bern, Bern, Switzerland

Now
41 °F

Fog.


Feels Like: 39 °F
Forecast: 40 / 59 °F
Wind: 3 mph from North

Location: Bern / Belp

Current Time: Nov 22, 2014 at 7:22:34 PM

Latest Report: Nov 22, 2014 at 6:50 PM


Visibility: 2 mi

Pressure: 30.15 "Hg

Humidity: 93%

Dew point: 39 °F

Location of BernLocation

Historic Weather in Bern — Graph

°F

Bern temperature yesterday

Maximum temperature yesterday: 50 °F (at 12:50 PM)
Minimum temperature yesterday: 34 °F (at 2:50 AM)
Average temperature yesterday: 42 °F

Past Weeks' High & Low Weather Summary

 TemperatureHumidityPressure
High55 °F (Nov 22, 2:50 PM)100% (Nov 7, 8:50 PM)30.24 "Hg (Nov 7, 8:50 PM)
Low30 °F (Nov 20, 12:20 AM)58% (Nov 19, 2:20 PM)29.56 "Hg (Nov 15, 4:50 PM)
Average43 °F94%29.86 "Hg
* Reported Nov 7 6:20 PM — Nov 22 6:20 PM, Bern, Weather by CustomWeather, © 2014

Note: Actual official high and low records may vary slightly from our data, if they occured in-between our weather recording intervals... More about our weather records

Advertising

Bern weather history for previous 24 hours

 ConditionsComfort  
Time TempWeatherWind HumidityBarometerVisibility
6:20 PM
Nov 22
43 °FPassing clouds.3 mph93%30.15 "Hg4 mi
5:50 PM45 °FClear.3 mph93%30.12 "Hg6 mi
5:20 PM45 °FClear.2 mph93%30.12 "Hg10 mi
4:50 PM48 °FClear.5 mph82%30.12 "Hg10 mi
4:20 PM50 °FSunny.2 mph82%30.12 "Hg10 mi
3:50 PM54 °FSunny.1 mph72%30.12 "Hg10 mi
3:20 PM55 °FSunny.3 mph67%30.12 "Hg10 mi
2:50 PM55 °FSunny.5 mph72%30.12 "Hg10 mi
2:20 PM54 °FSunny.3 mph67%30.12 "Hg10 mi
1:50 PM54 °FSunny.5 mph67%30.12 "Hg10 mi
1:20 PM52 °FSunny.3 mph72%30.12 "Hg10 mi
12:50 PM48 °FSunny.No wind82%30.15 "Hg10 mi
12:20 PM46 °FSunny.1 mph87%30.15 "Hg10 mi
11:50 AM45 °FSunny.1 mph93%30.15 "Hg10 mi
11:20 AM43 °FFog.1 mph100%30.18 "Hg5 mi
10:50 AM39 °FFog.1 mph100%30.18 "Hg1 mi
10:20 AM36 °FFog.1 mph100%30.18 "Hg0 mi
9:50 AM36 °FFog.1 mph100%30.18 "Hg0 mi
9:20 AM36 °FFog.1 mph100%30.18 "Hg0 mi
8:50 AM34 °FFog.2 mph100%30.18 "Hg0 mi
8:20 AM34 °FFog.2 mph100%30.15 "Hg0 mi
7:50 AM34 °FFog.No wind100%30.15 "Hg0 mi
7:20 AM34 °FFog.3 mph100%30.15 "Hg0 mi
6:50 AM34 °FFog.1 mph100%30.15 "Hg0 mi
6:20 AM34 °FFog.1 mph100%30.15 "Hg0 mi
5:50 AM34 °FFog.1 mph93%30.15 "Hg0 mi
5:20 AM34 °FFog.1 mph93%30.15 "Hg0 mi
4:50 AM34 °FFog.2 mph100%30.15 "Hg0 mi
4:20 AM34 °FFog.2 mph100%30.15 "Hg0 mi
3:50 AM34 °FFog.1 mph100%30.15 "Hg0 mi
3:20 AM36 °FChilly.1 mph100%30.15 "Hg4 mi
2:50 AM36 °FPassing clouds.2 mph100%30.15 "HgN/A
2:20 AM37 °FPassing clouds.1 mph100%30.15 "HgN/A
1:50 AM36 °FFog.3 mph100%30.12 "Hg1 mi
1:20 AM37 °FChilly.3 mph100%30.15 "Hg3 mi
12:50 AM36 °FClear.3 mph100%30.15 "Hg4 mi
12:20 AM37 °FChilly.3 mph93%30.15 "Hg5 mi
11:50 PM
Nov 21
39 °FChilly.2 mph93%30.15 "Hg3 mi
11:20 PM41 °FQuite cool.1 mph93%30.15 "HgN/A
10:20 PM43 °FFog.2 mph93%30.15 "Hg3 mi
9:50 PM43 °FFog.2 mph93%30.15 "Hg3 mi
9:20 PM43 °FFog.2 mph93%30.15 "Hg3 mi
8:50 PM43 °FMostly cloudy.1 mph93%30.15 "Hg4 mi
8:20 PM43 °FOvercast.1 mph93%30.15 "Hg4 mi
7:50 PM43 °FOvercast.3 mph100%30.15 "Hg4 mi
7:20 PM45 °FOvercast.6 mph93%30.12 "Hg4 mi
Weather by CustomWeather, © 2014

See weather overviewHow to use our weather pages